Index of /20260428/WXO-DD/model_rdps/10km/12/033
Name Last modified Size Description
Parent Directory -
20260428T12Z_MSC_RDPS_AbsoluteVorticity_IsbL-0250_RLatLon0.09_PT033H.grib2 2026-04-28 14:49 640K
20260428T12Z_MSC_RDPS_AbsoluteVorticity_IsbL-0500_RLatLon0.09_PT033H.grib2 2026-04-28 14:49 578K
20260428T12Z_MSC_RDPS_AbsoluteVorticity_IsbL-0700_RLatLon0.09_PT033H.grib2 2026-04-28 14:49 628K
20260428T12Z_MSC_RDPS_AbsoluteVorticity_IsbL-0850_RLatLon0.09_PT033H.grib2 2026-04-28 14:49 774K
20260428T12Z_MSC_RDPS_AirTemp_AGL-120m_RLatLon0.09_PT033H.grib2 2026-04-28 14:49 390K
20260428T12Z_MSC_RDPS_AirTemp_AGL-2m_RLatLon0.09_PT033H.grib2 2026-04-28 14:49 621K
20260428T12Z_MSC_RDPS_AirTemp_AGL-40m_RLatLon0.09_PT033H.grib2 2026-04-28 14:49 399K
20260428T12Z_MSC_RDPS_AirTemp_AGL-80m_RLatLon0.09_PT033H.grib2 2026-04-28 14:49 394K
20260428T12Z_MSC_RDPS_AirTemp_IsbL-0001_RLatLon0.09_PT033H.grib2 2026-04-28 14:49 283K
20260428T12Z_MSC_RDPS_AirTemp_IsbL-0005_RLatLon0.09_PT033H.grib2 2026-04-28 14:49 295K
20260428T12Z_MSC_RDPS_AirTemp_IsbL-0010_RLatLon0.09_PT033H.grib2 2026-04-28 14:49 306K
20260428T12Z_MSC_RDPS_AirTemp_IsbL-0020_RLatLon0.09_PT033H.grib2 2026-04-28 14:49 322K
20260428T12Z_MSC_RDPS_AirTemp_IsbL-0030_RLatLon0.09_PT033H.grib2 2026-04-28 14:49 345K
20260428T12Z_MSC_RDPS_AirTemp_IsbL-0050_RLatLon0.09_PT033H.grib2 2026-04-28 14:49 317K
20260428T12Z_MSC_RDPS_AirTemp_IsbL-0100_RLatLon0.09_PT033H.grib2 2026-04-28 14:49 435K
20260428T12Z_MSC_RDPS_AirTemp_IsbL-0150_RLatLon0.09_PT033H.grib2 2026-04-28 14:49 432K
20260428T12Z_MSC_RDPS_AirTemp_IsbL-0175_RLatLon0.09_PT033H.grib2 2026-04-28 14:49 421K
20260428T12Z_MSC_RDPS_AirTemp_IsbL-0200_RLatLon0.09_PT033H.grib2 2026-04-28 14:49 426K
20260428T12Z_MSC_RDPS_AirTemp_IsbL-0225_RLatLon0.09_PT033H.grib2 2026-04-28 14:49 429K
20260428T12Z_MSC_RDPS_AirTemp_IsbL-0250_RLatLon0.09_PT033H.grib2 2026-04-28 14:49 440K
20260428T12Z_MSC_RDPS_AirTemp_IsbL-0275_RLatLon0.09_PT033H.grib2 2026-04-28 14:49 418K
20260428T12Z_MSC_RDPS_AirTemp_IsbL-0300_RLatLon0.09_PT033H.grib2 2026-04-28 14:49 424K
20260428T12Z_MSC_RDPS_AirTemp_IsbL-0350_RLatLon0.09_PT033H.grib2 2026-04-28 14:49 433K
20260428T12Z_MSC_RDPS_AirTemp_IsbL-0400_RLatLon0.09_PT033H.grib2 2026-04-28 14:49 434K
20260428T12Z_MSC_RDPS_AirTemp_IsbL-0450_RLatLon0.09_PT033H.grib2 2026-04-28 14:49 439K
20260428T12Z_MSC_RDPS_AirTemp_IsbL-0500_RLatLon0.09_PT033H.grib2 2026-04-28 14:49 416K
20260428T12Z_MSC_RDPS_AirTemp_IsbL-0550_RLatLon0.09_PT033H.grib2 2026-04-28 14:49 434K
20260428T12Z_MSC_RDPS_AirTemp_IsbL-0600_RLatLon0.09_PT033H.grib2 2026-04-28 14:49 453K
20260428T12Z_MSC_RDPS_AirTemp_IsbL-0650_RLatLon0.09_PT033H.grib2 2026-04-28 14:49 471K
20260428T12Z_MSC_RDPS_AirTemp_IsbL-0700_RLatLon0.09_PT033H.grib2 2026-04-28 14:49 387K
20260428T12Z_MSC_RDPS_AirTemp_IsbL-0750_RLatLon0.09_PT033H.grib2 2026-04-28 14:49 420K
20260428T12Z_MSC_RDPS_AirTemp_IsbL-0800_RLatLon0.09_PT033H.grib2 2026-04-28 14:49 457K
20260428T12Z_MSC_RDPS_AirTemp_IsbL-0850_RLatLon0.09_PT033H.grib2 2026-04-28 14:49 501K
20260428T12Z_MSC_RDPS_AirTemp_IsbL-0875_RLatLon0.09_PT033H.grib2 2026-04-28 14:49 521K
20260428T12Z_MSC_RDPS_AirTemp_IsbL-0900_RLatLon0.09_PT033H.grib2 2026-04-28 14:49 531K
20260428T12Z_MSC_RDPS_AirTemp_IsbL-0925_RLatLon0.09_PT033H.grib2 2026-04-28 14:49 528K
20260428T12Z_MSC_RDPS_AirTemp_IsbL-0950_RLatLon0.09_PT033H.grib2 2026-04-28 14:49 527K
20260428T12Z_MSC_RDPS_AirTemp_IsbL-0970_RLatLon0.09_PT033H.grib2 2026-04-28 14:49 529K
20260428T12Z_MSC_RDPS_AirTemp_IsbL-0985_RLatLon0.09_PT033H.grib2 2026-04-28 14:49 519K
20260428T12Z_MSC_RDPS_AirTemp_IsbL-1000_RLatLon0.09_PT033H.grib2 2026-04-28 14:49 507K
20260428T12Z_MSC_RDPS_AirTemp_IsbL-1015_RLatLon0.09_PT033H.grib2 2026-04-28 14:49 503K
20260428T12Z_MSC_RDPS_Albedo_Sfc_RLatLon0.09_PT033H.grib2 2026-04-28 14:49 163K
20260428T12Z_MSC_RDPS_CAPE_Sfc_RLatLon0.09_PT033H.grib2 2026-04-28 14:49 1.7M
20260428T12Z_MSC_RDPS_CIN_Sfc_RLatLon0.09_PT033H.grib2 2026-04-28 14:49 1.2M
20260428T12Z_MSC_RDPS_CloudWater_EAtm_RLatLon0.09_PT033H.grib2 2026-04-28 14:49 222K
20260428T12Z_MSC_RDPS_ConvectivePrecip-Accum_Sfc_RLatLon0.09_PT033H.grib2 2026-04-28 14:49 934K
20260428T12Z_MSC_RDPS_DewPointDepression_AGL-2m_RLatLon0.09_PT033H.grib2 2026-04-28 14:49 415K
20260428T12Z_MSC_RDPS_DewPointDepression_IsbL-0001_RLatLon0.09_PT033H.grib2 2026-04-28 14:49 193
20260428T12Z_MSC_RDPS_DewPointDepression_IsbL-0005_RLatLon0.09_PT033H.grib2 2026-04-28 14:49 193
20260428T12Z_MSC_RDPS_DewPointDepression_IsbL-0010_RLatLon0.09_PT033H.grib2 2026-04-28 14:49 193
20260428T12Z_MSC_RDPS_DewPointDepression_IsbL-0020_RLatLon0.09_PT033H.grib2 2026-04-28 14:49 193
20260428T12Z_MSC_RDPS_DewPointDepression_IsbL-0030_RLatLon0.09_PT033H.grib2 2026-04-28 14:49 193
20260428T12Z_MSC_RDPS_DewPointDepression_IsbL-0050_RLatLon0.09_PT033H.grib2 2026-04-28 14:49 93K
20260428T12Z_MSC_RDPS_DewPointDepression_IsbL-0100_RLatLon0.09_PT033H.grib2 2026-04-28 14:49 133K
20260428T12Z_MSC_RDPS_DewPointDepression_IsbL-0150_RLatLon0.09_PT033H.grib2 2026-04-28 14:49 155K
20260428T12Z_MSC_RDPS_DewPointDepression_IsbL-0175_RLatLon0.09_PT033H.grib2 2026-04-28 14:49 183K
20260428T12Z_MSC_RDPS_DewPointDepression_IsbL-0200_RLatLon0.09_PT033H.grib2 2026-04-28 14:49 225K
20260428T12Z_MSC_RDPS_DewPointDepression_IsbL-0225_RLatLon0.09_PT033H.grib2 2026-04-28 14:49 272K
20260428T12Z_MSC_RDPS_DewPointDepression_IsbL-0250_RLatLon0.09_PT033H.grib2 2026-04-28 14:49 311K
20260428T12Z_MSC_RDPS_DewPointDepression_IsbL-0275_RLatLon0.09_PT033H.grib2 2026-04-28 14:49 319K
20260428T12Z_MSC_RDPS_DewPointDepression_IsbL-0300_RLatLon0.09_PT033H.grib2 2026-04-28 14:49 339K
20260428T12Z_MSC_RDPS_DewPointDepression_IsbL-0350_RLatLon0.09_PT033H.grib2 2026-04-28 14:49 340K
20260428T12Z_MSC_RDPS_DewPointDepression_IsbL-0400_RLatLon0.09_PT033H.grib2 2026-04-28 14:49 347K
20260428T12Z_MSC_RDPS_DewPointDepression_IsbL-0450_RLatLon0.09_PT033H.grib2 2026-04-28 14:49 354K
20260428T12Z_MSC_RDPS_DewPointDepression_IsbL-0500_RLatLon0.09_PT033H.grib2 2026-04-28 14:49 361K
20260428T12Z_MSC_RDPS_DewPointDepression_IsbL-0550_RLatLon0.09_PT033H.grib2 2026-04-28 14:49 376K
20260428T12Z_MSC_RDPS_DewPointDepression_IsbL-0600_RLatLon0.09_PT033H.grib2 2026-04-28 14:49 389K
20260428T12Z_MSC_RDPS_DewPointDepression_IsbL-0650_RLatLon0.09_PT033H.grib2 2026-04-28 14:49 394K
20260428T12Z_MSC_RDPS_DewPointDepression_IsbL-0700_RLatLon0.09_PT033H.grib2 2026-04-28 14:49 405K
20260428T12Z_MSC_RDPS_DewPointDepression_IsbL-0750_RLatLon0.09_PT033H.grib2 2026-04-28 14:49 424K
20260428T12Z_MSC_RDPS_DewPointDepression_IsbL-0800_RLatLon0.09_PT033H.grib2 2026-04-28 14:49 449K
20260428T12Z_MSC_RDPS_DewPointDepression_IsbL-0850_RLatLon0.09_PT033H.grib2 2026-04-28 14:49 471K
20260428T12Z_MSC_RDPS_DewPointDepression_IsbL-0875_RLatLon0.09_PT033H.grib2 2026-04-28 14:49 473K
20260428T12Z_MSC_RDPS_DewPointDepression_IsbL-0900_RLatLon0.09_PT033H.grib2 2026-04-28 14:49 465K
20260428T12Z_MSC_RDPS_DewPointDepression_IsbL-0925_RLatLon0.09_PT033H.grib2 2026-04-28 14:49 453K
20260428T12Z_MSC_RDPS_DewPointDepression_IsbL-0950_RLatLon0.09_PT033H.grib2 2026-04-28 14:49 444K
20260428T12Z_MSC_RDPS_DewPointDepression_IsbL-0970_RLatLon0.09_PT033H.grib2 2026-04-28 14:49 434K
20260428T12Z_MSC_RDPS_DewPointDepression_IsbL-0985_RLatLon0.09_PT033H.grib2 2026-04-28 14:49 427K
20260428T12Z_MSC_RDPS_DewPointDepression_IsbL-1000_RLatLon0.09_PT033H.grib2 2026-04-28 14:49 423K
20260428T12Z_MSC_RDPS_DewPointDepression_IsbL-1015_RLatLon0.09_PT033H.grib2 2026-04-28 14:49 414K
20260428T12Z_MSC_RDPS_DewPoint_AGL-2m_RLatLon0.09_PT033H.grib2 2026-04-28 14:49 395K
20260428T12Z_MSC_RDPS_DownwardLongwaveRadiationFlux-Accum_Sfc_RLatLon0.09_PT033H.grib2 2026-04-28 14:49 484K
20260428T12Z_MSC_RDPS_DownwardShortwaveRadiationFlux-Accum_NTAtm_RLatLon0.09_PT033H.grib2 2026-04-28 14:49 102K
20260428T12Z_MSC_RDPS_DownwardShortwaveRadiationFlux-Accum_Sfc_RLatLon0.09_PT033H.grib2 2026-04-28 14:49 522K
20260428T12Z_MSC_RDPS_FreezingRain-Accum1h_Sfc_RLatLon0.09_PT033H.grib2 2026-04-28 14:49 11K
20260428T12Z_MSC_RDPS_FreezingRain-Accum3h_Sfc_RLatLon0.09_PT033H.grib2 2026-04-28 14:49 12K
20260428T12Z_MSC_RDPS_FreezingRain-Accum_Sfc_RLatLon0.09_PT033H.grib2 2026-04-28 14:49 134K
20260428T12Z_MSC_RDPS_GeopotentialHeight_IsbL-0001_RLatLon0.09_PT033H.grib2 2026-04-28 14:49 249K
20260428T12Z_MSC_RDPS_GeopotentialHeight_IsbL-0005_RLatLon0.09_PT033H.grib2 2026-04-28 14:49 315K
20260428T12Z_MSC_RDPS_GeopotentialHeight_IsbL-0010_RLatLon0.09_PT033H.grib2 2026-04-28 14:49 344K
20260428T12Z_MSC_RDPS_GeopotentialHeight_IsbL-0020_RLatLon0.09_PT033H.grib2 2026-04-28 14:49 311K
20260428T12Z_MSC_RDPS_GeopotentialHeight_IsbL-0030_RLatLon0.09_PT033H.grib2 2026-04-28 14:49 312K
20260428T12Z_MSC_RDPS_GeopotentialHeight_IsbL-0050_RLatLon0.09_PT033H.grib2 2026-04-28 14:49 346K
20260428T12Z_MSC_RDPS_GeopotentialHeight_IsbL-0100_RLatLon0.09_PT033H.grib2 2026-04-28 14:49 290K
20260428T12Z_MSC_RDPS_GeopotentialHeight_IsbL-0150_RLatLon0.09_PT033H.grib2 2026-04-28 14:49 235K
20260428T12Z_MSC_RDPS_GeopotentialHeight_IsbL-0175_RLatLon0.09_PT033H.grib2 2026-04-28 14:49 238K
20260428T12Z_MSC_RDPS_GeopotentialHeight_IsbL-0200_RLatLon0.09_PT033H.grib2 2026-04-28 14:49 271K
20260428T12Z_MSC_RDPS_GeopotentialHeight_IsbL-0225_RLatLon0.09_PT033H.grib2 2026-04-28 14:49 272K
20260428T12Z_MSC_RDPS_GeopotentialHeight_IsbL-0250_RLatLon0.09_PT033H.grib2 2026-04-28 14:49 273K
20260428T12Z_MSC_RDPS_GeopotentialHeight_IsbL-0275_RLatLon0.09_PT033H.grib2 2026-04-28 14:49 271K
20260428T12Z_MSC_RDPS_GeopotentialHeight_IsbL-0300_RLatLon0.09_PT033H.grib2 2026-04-28 14:49 240K
20260428T12Z_MSC_RDPS_GeopotentialHeight_IsbL-0350_RLatLon0.09_PT033H.grib2 2026-04-28 14:49 236K
20260428T12Z_MSC_RDPS_GeopotentialHeight_IsbL-0400_RLatLon0.09_PT033H.grib2 2026-04-28 14:49 232K
20260428T12Z_MSC_RDPS_GeopotentialHeight_IsbL-0450_RLatLon0.09_PT033H.grib2 2026-04-28 14:49 301K
20260428T12Z_MSC_RDPS_GeopotentialHeight_IsbL-0500_RLatLon0.09_PT033H.grib2 2026-04-28 14:49 295K
20260428T12Z_MSC_RDPS_GeopotentialHeight_IsbL-0550_RLatLon0.09_PT033H.grib2 2026-04-28 14:49 292K
20260428T12Z_MSC_RDPS_GeopotentialHeight_IsbL-0600_RLatLon0.09_PT033H.grib2 2026-04-28 14:49 290K
20260428T12Z_MSC_RDPS_GeopotentialHeight_IsbL-0650_RLatLon0.09_PT033H.grib2 2026-04-28 14:49 259K
20260428T12Z_MSC_RDPS_GeopotentialHeight_IsbL-0700_RLatLon0.09_PT033H.grib2 2026-04-28 14:49 340K
20260428T12Z_MSC_RDPS_GeopotentialHeight_IsbL-0750_RLatLon0.09_PT033H.grib2 2026-04-28 14:49 342K
20260428T12Z_MSC_RDPS_GeopotentialHeight_IsbL-0800_RLatLon0.09_PT033H.grib2 2026-04-28 14:49 349K
20260428T12Z_MSC_RDPS_GeopotentialHeight_IsbL-0850_RLatLon0.09_PT033H.grib2 2026-04-28 14:49 357K
20260428T12Z_MSC_RDPS_GeopotentialHeight_IsbL-0875_RLatLon0.09_PT033H.grib2 2026-04-28 14:49 358K
20260428T12Z_MSC_RDPS_GeopotentialHeight_IsbL-0900_RLatLon0.09_PT033H.grib2 2026-04-28 14:49 398K
20260428T12Z_MSC_RDPS_GeopotentialHeight_IsbL-0925_RLatLon0.09_PT033H.grib2 2026-04-28 14:49 401K
20260428T12Z_MSC_RDPS_GeopotentialHeight_IsbL-0950_RLatLon0.09_PT033H.grib2 2026-04-28 14:49 405K
20260428T12Z_MSC_RDPS_GeopotentialHeight_IsbL-0970_RLatLon0.09_PT033H.grib2 2026-04-28 14:49 412K
20260428T12Z_MSC_RDPS_GeopotentialHeight_IsbL-0985_RLatLon0.09_PT033H.grib2 2026-04-28 14:49 422K
20260428T12Z_MSC_RDPS_GeopotentialHeight_IsbL-1000_RLatLon0.09_PT033H.grib2 2026-04-28 14:49 434K
20260428T12Z_MSC_RDPS_GeopotentialHeight_IsbL-1015_RLatLon0.09_PT033H.grib2 2026-04-28 14:49 449K
20260428T12Z_MSC_RDPS_Humidex_Sfc_RLatLon0.09_PT033H.grib2 2026-04-28 14:49 2.4M
20260428T12Z_MSC_RDPS_IcePellets-Accum1h_Sfc_RLatLon0.09_PT033H.grib2 2026-04-28 14:49 217
20260428T12Z_MSC_RDPS_IcePellets-Accum3h_Sfc_RLatLon0.09_PT033H.grib2 2026-04-28 14:49 1.9K
20260428T12Z_MSC_RDPS_IcePellets-Accum_Sfc_RLatLon0.09_PT033H.grib2 2026-04-28 14:49 23K
20260428T12Z_MSC_RDPS_KIndex_Sfc_RLatLon0.09_PT033H.grib2 2026-04-28 14:49 2.5M
20260428T12Z_MSC_RDPS_LatentHeatNetFlux_Sfc_RLatLon0.09_PT033H.grib2 2026-04-28 14:49 385K
20260428T12Z_MSC_RDPS_LiftedIndex-MU-VT_IsbL-0500_RLatLon0.09_PT033H.grib2 2026-04-28 14:49 2.4M
20260428T12Z_MSC_RDPS_NetLongwaveRadiationFlux-Accum_Sfc_RLatLon0.09_PT033H.grib2 2026-04-28 14:49 490K
20260428T12Z_MSC_RDPS_NetShortwaveRadiationFlux-Accum_Sfc_RLatLon0.09_PT033H.grib2 2026-04-28 14:49 567K
20260428T12Z_MSC_RDPS_PlanetaryBoundaryLayerHeight_Sfc_RLatLon0.09_PT033H.grib2 2026-04-28 14:49 1.0M
20260428T12Z_MSC_RDPS_Precip-Accum1h_Sfc_RLatLon0.09_PT033H.grib2 2026-04-28 14:49 1.1M
20260428T12Z_MSC_RDPS_Precip-Accum3h_Sfc_RLatLon0.09_PT033H.grib2 2026-04-28 14:49 1.3M
20260428T12Z_MSC_RDPS_Precip-Accum_Sfc_RLatLon0.09_PT033H.grib2 2026-04-28 14:49 1.9M
20260428T12Z_MSC_RDPS_PrecipRate_Sfc_RLatLon0.09_PT033H.grib2 2026-04-28 14:49 138K
20260428T12Z_MSC_RDPS_PrecipType-Instant_Sfc_RLatLon0.09_PT033H.grib2 2026-04-28 14:49 578K
20260428T12Z_MSC_RDPS_Pressure-Trend3h_Sfc_RLatLon0.09_PT033H.grib2 2026-04-28 14:49 1.2M
20260428T12Z_MSC_RDPS_Pressure_MSL_RLatLon0.09_PT033H.grib2 2026-04-28 14:49 331K
20260428T12Z_MSC_RDPS_Pressure_PVU-1.5_RLatLon0.09_PT033H.grib2 2026-04-28 14:49 2.5M
20260428T12Z_MSC_RDPS_Pressure_PVU-1_RLatLon0.09_PT033H.grib2 2026-04-28 14:49 2.4M
20260428T12Z_MSC_RDPS_Pressure_PVU-2_RLatLon0.09_PT033H.grib2 2026-04-28 14:49 2.4M
20260428T12Z_MSC_RDPS_Pressure_Sfc_RLatLon0.09_PT033H.grib2 2026-04-28 14:49 500K
20260428T12Z_MSC_RDPS_RadiativeTemp_Sfc_RLatLon0.09_PT033H.grib2 2026-04-28 14:49 324K
20260428T12Z_MSC_RDPS_Rain-Accum1h_Sfc_RLatLon0.09_PT033H.grib2 2026-04-28 14:49 499K
20260428T12Z_MSC_RDPS_Rain-Accum3h_Sfc_RLatLon0.09_PT033H.grib2 2026-04-28 14:49 622K
20260428T12Z_MSC_RDPS_Rain-Accum_Sfc_RLatLon0.09_PT033H.grib2 2026-04-28 14:49 1.4M
20260428T12Z_MSC_RDPS_RelativeHumidity_AGL-2m_RLatLon0.09_PT033H.grib2 2026-04-28 14:49 1.0M
20260428T12Z_MSC_RDPS_RelativeHumidity_IsbL-0010_RLatLon0.09_PT033H.grib2 2026-04-28 14:49 630K
20260428T12Z_MSC_RDPS_RelativeHumidity_IsbL-0020_RLatLon0.09_PT033H.grib2 2026-04-28 14:49 648K
20260428T12Z_MSC_RDPS_RelativeHumidity_IsbL-0030_RLatLon0.09_PT033H.grib2 2026-04-28 14:49 609K
20260428T12Z_MSC_RDPS_RelativeHumidity_IsbL-0050_RLatLon0.09_PT033H.grib2 2026-04-28 14:49 272K
20260428T12Z_MSC_RDPS_RelativeHumidity_IsbL-0100_RLatLon0.09_PT033H.grib2 2026-04-28 14:49 289K
20260428T12Z_MSC_RDPS_RelativeHumidity_IsbL-0150_RLatLon0.09_PT033H.grib2 2026-04-28 14:49 424K
20260428T12Z_MSC_RDPS_RelativeHumidity_IsbL-0175_RLatLon0.09_PT033H.grib2 2026-04-28 14:49 493K
20260428T12Z_MSC_RDPS_RelativeHumidity_IsbL-0200_RLatLon0.09_PT033H.grib2 2026-04-28 14:49 567K
20260428T12Z_MSC_RDPS_RelativeHumidity_IsbL-0225_RLatLon0.09_PT033H.grib2 2026-04-28 14:49 636K
20260428T12Z_MSC_RDPS_RelativeHumidity_IsbL-0250_RLatLon0.09_PT033H.grib2 2026-04-28 14:49 710K
20260428T12Z_MSC_RDPS_RelativeHumidity_IsbL-0275_RLatLon0.09_PT033H.grib2 2026-04-28 14:49 742K
20260428T12Z_MSC_RDPS_RelativeHumidity_IsbL-0300_RLatLon0.09_PT033H.grib2 2026-04-28 14:49 788K
20260428T12Z_MSC_RDPS_RelativeHumidity_IsbL-0350_RLatLon0.09_PT033H.grib2 2026-04-28 14:49 801K
20260428T12Z_MSC_RDPS_RelativeHumidity_IsbL-0400_RLatLon0.09_PT033H.grib2 2026-04-28 14:49 808K
20260428T12Z_MSC_RDPS_RelativeHumidity_IsbL-0450_RLatLon0.09_PT033H.grib2 2026-04-28 14:49 811K
20260428T12Z_MSC_RDPS_RelativeHumidity_IsbL-0500_RLatLon0.09_PT033H.grib2 2026-04-28 14:49 818K
20260428T12Z_MSC_RDPS_RelativeHumidity_IsbL-0550_RLatLon0.09_PT033H.grib2 2026-04-28 14:49 837K
20260428T12Z_MSC_RDPS_RelativeHumidity_IsbL-0600_RLatLon0.09_PT033H.grib2 2026-04-28 14:49 865K
20260428T12Z_MSC_RDPS_RelativeHumidity_IsbL-0650_RLatLon0.09_PT033H.grib2 2026-04-28 14:49 868K
20260428T12Z_MSC_RDPS_RelativeHumidity_IsbL-0700_RLatLon0.09_PT033H.grib2 2026-04-28 14:49 892K
20260428T12Z_MSC_RDPS_RelativeHumidity_IsbL-0750_RLatLon0.09_PT033H.grib2 2026-04-28 14:49 940K
20260428T12Z_MSC_RDPS_RelativeHumidity_IsbL-0800_RLatLon0.09_PT033H.grib2 2026-04-28 14:49 1.0M
20260428T12Z_MSC_RDPS_RelativeHumidity_IsbL-0850_RLatLon0.09_PT033H.grib2 2026-04-28 14:49 1.0M
20260428T12Z_MSC_RDPS_RelativeHumidity_IsbL-0875_RLatLon0.09_PT033H.grib2 2026-04-28 14:49 1.1M
20260428T12Z_MSC_RDPS_RelativeHumidity_IsbL-0900_RLatLon0.09_PT033H.grib2 2026-04-28 14:49 1.1M
20260428T12Z_MSC_RDPS_RelativeHumidity_IsbL-0925_RLatLon0.09_PT033H.grib2 2026-04-28 14:49 1.1M
20260428T12Z_MSC_RDPS_RelativeHumidity_IsbL-0950_RLatLon0.09_PT033H.grib2 2026-04-28 14:49 1.1M
20260428T12Z_MSC_RDPS_RelativeHumidity_IsbL-0970_RLatLon0.09_PT033H.grib2 2026-04-28 14:49 1.0M
20260428T12Z_MSC_RDPS_RelativeHumidity_IsbL-0985_RLatLon0.09_PT033H.grib2 2026-04-28 14:49 1.0M
20260428T12Z_MSC_RDPS_RelativeHumidity_IsbL-1000_RLatLon0.09_PT033H.grib2 2026-04-28 14:49 1.0M
20260428T12Z_MSC_RDPS_RelativeHumidity_IsbL-1015_RLatLon0.09_PT033H.grib2 2026-04-28 14:49 1.0M
20260428T12Z_MSC_RDPS_Runoff-Accum_Sfc_RLatLon0.09_PT033H.grib2 2026-04-28 14:49 56K
20260428T12Z_MSC_RDPS_SWEATIndex_Sfc_RLatLon0.09_PT033H.grib2 2026-04-28 14:49 2.4M
20260428T12Z_MSC_RDPS_SeeingIndex_EAtm_RLatLon0.09_PT033H.grib2 2026-04-28 14:49 1.0M
20260428T12Z_MSC_RDPS_SensibleHeatNetFlux_Sfc_RLatLon0.09_PT033H.grib2 2026-04-28 14:49 357K
20260428T12Z_MSC_RDPS_ShowalterIndex_IsbL-0500_RLatLon0.09_PT033H.grib2 2026-04-28 14:49 2.6M
20260428T12Z_MSC_RDPS_SkyTransparencyIndex_EAtm_RLatLon0.09_PT033H.grib2 2026-04-28 14:49 685K
20260428T12Z_MSC_RDPS_Snow-Accum1h_Sfc_RLatLon0.09_PT033H.grib2 2026-04-28 14:49 459K
20260428T12Z_MSC_RDPS_Snow-Accum3h_Sfc_RLatLon0.09_PT033H.grib2 2026-04-28 14:49 456K
20260428T12Z_MSC_RDPS_Snow-Accum_Sfc_RLatLon0.09_PT033H.grib2 2026-04-28 14:49 763K
20260428T12Z_MSC_RDPS_SnowDensity_Sfc_RLatLon0.09_PT033H.grib2 2026-04-28 14:49 181K
20260428T12Z_MSC_RDPS_SnowDepth_Sfc_RLatLon0.09_PT033H.grib2 2026-04-28 14:49 688K
20260428T12Z_MSC_RDPS_SoilTemp_DBS-0to10cm_RLatLon0.09_PT033H.grib2 2026-04-28 14:49 235K
20260428T12Z_MSC_RDPS_SoilTemp_Sfc_RLatLon0.09_PT033H.grib2 2026-04-28 14:49 294K
20260428T12Z_MSC_RDPS_SoilVolumetricIceContent_Sfc_RLatLon0.09_PT033H.grib2 2026-04-28 14:49 165K
20260428T12Z_MSC_RDPS_SoilVolumetricWaterContent_DBS-0to10cm_RLatLon0.09_PT033H.grib2 2026-04-28 14:49 265K
20260428T12Z_MSC_RDPS_SoilVolumetricWaterContent_DBS-0to1cm_RLatLon0.09_PT033H.grib2 2026-04-28 14:49 335K
20260428T12Z_MSC_RDPS_SpecificHumidity_AGL-120m_RLatLon0.09_PT033H.grib2 2026-04-28 14:49 492K
20260428T12Z_MSC_RDPS_SpecificHumidity_AGL-2m_RLatLon0.09_PT033H.grib2 2026-04-28 14:49 656K
20260428T12Z_MSC_RDPS_SpecificHumidity_AGL-40m_RLatLon0.09_PT033H.grib2 2026-04-28 14:49 495K
20260428T12Z_MSC_RDPS_SpecificHumidity_AGL-80m_RLatLon0.09_PT033H.grib2 2026-04-28 14:49 492K
20260428T12Z_MSC_RDPS_SpecificHumidity_IsbL-0001_RLatLon0.09_PT033H.grib2 2026-04-28 14:49 395K
20260428T12Z_MSC_RDPS_SpecificHumidity_IsbL-0005_RLatLon0.09_PT033H.grib2 2026-04-28 14:49 361K
20260428T12Z_MSC_RDPS_SpecificHumidity_IsbL-0010_RLatLon0.09_PT033H.grib2 2026-04-28 14:49 396K
20260428T12Z_MSC_RDPS_SpecificHumidity_IsbL-0020_RLatLon0.09_PT033H.grib2 2026-04-28 14:49 389K
20260428T12Z_MSC_RDPS_SpecificHumidity_IsbL-0030_RLatLon0.09_PT033H.grib2 2026-04-28 14:49 373K
20260428T12Z_MSC_RDPS_SpecificHumidity_IsbL-0050_RLatLon0.09_PT033H.grib2 2026-04-28 14:49 462K
20260428T12Z_MSC_RDPS_SpecificHumidity_IsbL-0100_RLatLon0.09_PT033H.grib2 2026-04-28 14:49 356K
20260428T12Z_MSC_RDPS_SpecificHumidity_IsbL-0150_RLatLon0.09_PT033H.grib2 2026-04-28 14:49 491K
20260428T12Z_MSC_RDPS_SpecificHumidity_IsbL-0175_RLatLon0.09_PT033H.grib2 2026-04-28 14:49 449K
20260428T12Z_MSC_RDPS_SpecificHumidity_IsbL-0200_RLatLon0.09_PT033H.grib2 2026-04-28 14:49 466K
20260428T12Z_MSC_RDPS_SpecificHumidity_IsbL-0225_RLatLon0.09_PT033H.grib2 2026-04-28 14:49 469K
20260428T12Z_MSC_RDPS_SpecificHumidity_IsbL-0250_RLatLon0.09_PT033H.grib2 2026-04-28 14:49 574K
20260428T12Z_MSC_RDPS_SpecificHumidity_IsbL-0275_RLatLon0.09_PT033H.grib2 2026-04-28 14:49 492K
20260428T12Z_MSC_RDPS_SpecificHumidity_IsbL-0300_RLatLon0.09_PT033H.grib2 2026-04-28 14:49 593K
20260428T12Z_MSC_RDPS_SpecificHumidity_IsbL-0350_RLatLon0.09_PT033H.grib2 2026-04-28 14:49 555K
20260428T12Z_MSC_RDPS_SpecificHumidity_IsbL-0400_RLatLon0.09_PT033H.grib2 2026-04-28 14:49 532K
20260428T12Z_MSC_RDPS_SpecificHumidity_IsbL-0450_RLatLon0.09_PT033H.grib2 2026-04-28 14:49 582K
20260428T12Z_MSC_RDPS_SpecificHumidity_IsbL-0500_RLatLon0.09_PT033H.grib2 2026-04-28 14:49 521K
20260428T12Z_MSC_RDPS_SpecificHumidity_IsbL-0550_RLatLon0.09_PT033H.grib2 2026-04-28 14:49 596K
20260428T12Z_MSC_RDPS_SpecificHumidity_IsbL-0600_RLatLon0.09_PT033H.grib2 2026-04-28 14:49 650K
20260428T12Z_MSC_RDPS_SpecificHumidity_IsbL-0650_RLatLon0.09_PT033H.grib2 2026-04-28 14:49 568K
20260428T12Z_MSC_RDPS_SpecificHumidity_IsbL-0700_RLatLon0.09_PT033H.grib2 2026-04-28 14:49 611K
20260428T12Z_MSC_RDPS_SpecificHumidity_IsbL-0750_RLatLon0.09_PT033H.grib2 2026-04-28 14:49 664K
20260428T12Z_MSC_RDPS_SpecificHumidity_IsbL-0800_RLatLon0.09_PT033H.grib2 2026-04-28 14:49 738K
20260428T12Z_MSC_RDPS_SpecificHumidity_IsbL-0850_RLatLon0.09_PT033H.grib2 2026-04-28 14:49 669K
20260428T12Z_MSC_RDPS_SpecificHumidity_IsbL-0875_RLatLon0.09_PT033H.grib2 2026-04-28 14:49 693K
20260428T12Z_MSC_RDPS_SpecificHumidity_IsbL-0900_RLatLon0.09_PT033H.grib2 2026-04-28 14:49 704K
20260428T12Z_MSC_RDPS_SpecificHumidity_IsbL-0925_RLatLon0.09_PT033H.grib2 2026-04-28 14:49 706K
20260428T12Z_MSC_RDPS_SpecificHumidity_IsbL-0950_RLatLon0.09_PT033H.grib2 2026-04-28 14:49 707K
20260428T12Z_MSC_RDPS_SpecificHumidity_IsbL-0970_RLatLon0.09_PT033H.grib2 2026-04-28 14:49 696K
20260428T12Z_MSC_RDPS_SpecificHumidity_IsbL-0985_RLatLon0.09_PT033H.grib2 2026-04-28 14:49 686K
20260428T12Z_MSC_RDPS_SpecificHumidity_IsbL-1000_RLatLon0.09_PT033H.grib2 2026-04-28 14:49 679K
20260428T12Z_MSC_RDPS_SpecificHumidity_IsbL-1015_RLatLon0.09_PT033H.grib2 2026-04-28 14:49 667K
20260428T12Z_MSC_RDPS_SpecificHumidity_Sfc_RLatLon0.09_PT033H.grib2 2026-04-28 14:49 339K
20260428T12Z_MSC_RDPS_StormRelativeHelicity_EtaL-10000_RLatLon0.09_PT033H.grib2 2026-04-28 14:49 1.1M
20260428T12Z_MSC_RDPS_StormSeverityIndex_EtaL-10000_RLatLon0.09_PT033H.grib2 2026-04-28 14:49 1.1M
20260428T12Z_MSC_RDPS_Thickness_IsbL-0850to0700_RLatLon0.09_PT033H.grib2 2026-04-28 14:49 181K
20260428T12Z_MSC_RDPS_Thickness_IsbL-1000to0500_RLatLon0.09_PT033H.grib2 2026-04-28 14:49 140K
20260428T12Z_MSC_RDPS_Thickness_IsbL-1000to0850_RLatLon0.09_PT033H.grib2 2026-04-28 14:49 189K
20260428T12Z_MSC_RDPS_TotalCloudCover_Sfc_RLatLon0.09_PT033H.grib2 2026-04-28 14:49 640K
20260428T12Z_MSC_RDPS_TotalTotalsIndex_Sfc_RLatLon0.09_PT033H.grib2 2026-04-28 14:49 2.4M
20260428T12Z_MSC_RDPS_UVIndex-ClearSky_Sfc_RLatLon0.09_PT033H.grib2 2026-04-28 14:49 201K
20260428T12Z_MSC_RDPS_UVIndex_Sfc_RLatLon0.09_PT033H.grib2 2026-04-28 14:49 463K
20260428T12Z_MSC_RDPS_UpwardLongwaveRadiationFlux_NTAtm_RLatLon0.09_PT033H.grib2 2026-04-28 14:49 392K
20260428T12Z_MSC_RDPS_UpwardShortwaveRadiationFlux_NTAtm_RLatLon0.09_PT033H.grib2 2026-04-28 14:49 502K
20260428T12Z_MSC_RDPS_VerticalVelocity_IsbL-0250_RLatLon0.09_PT033H.grib2 2026-04-28 14:49 445K
20260428T12Z_MSC_RDPS_VerticalVelocity_IsbL-0500_RLatLon0.09_PT033H.grib2 2026-04-28 14:49 552K
20260428T12Z_MSC_RDPS_VerticalVelocity_IsbL-0700_RLatLon0.09_PT033H.grib2 2026-04-28 14:49 604K
20260428T12Z_MSC_RDPS_VerticalVelocity_IsbL-0850_RLatLon0.09_PT033H.grib2 2026-04-28 14:49 697K
20260428T12Z_MSC_RDPS_VerticalWindShear_EtaL-6500_RLatLon0.09_PT033H.grib2 2026-04-28 14:49 1.2M
20260428T12Z_MSC_RDPS_WindChill_Sfc_RLatLon0.09_PT033H.grib2 2026-04-28 14:49 1.1M
20260428T12Z_MSC_RDPS_WindDir_AGL-10m_RLatLon0.09_PT033H.grib2 2026-04-28 14:49 954K
20260428T12Z_MSC_RDPS_WindDir_AGL-120m_RLatLon0.09_PT033H.grib2 2026-04-28 14:49 607K
20260428T12Z_MSC_RDPS_WindDir_AGL-40m_RLatLon0.09_PT033H.grib2 2026-04-28 14:49 625K
20260428T12Z_MSC_RDPS_WindDir_AGL-80m_RLatLon0.09_PT033H.grib2 2026-04-28 14:49 614K
20260428T12Z_MSC_RDPS_WindDir_IsbL-0001_RLatLon0.09_PT033H.grib2 2026-04-28 14:49 296K
20260428T12Z_MSC_RDPS_WindDir_IsbL-0005_RLatLon0.09_PT033H.grib2 2026-04-28 14:49 362K
20260428T12Z_MSC_RDPS_WindDir_IsbL-0010_RLatLon0.09_PT033H.grib2 2026-04-28 14:49 376K
20260428T12Z_MSC_RDPS_WindDir_IsbL-0020_RLatLon0.09_PT033H.grib2 2026-04-28 14:49 408K
20260428T12Z_MSC_RDPS_WindDir_IsbL-0030_RLatLon0.09_PT033H.grib2 2026-04-28 14:49 410K
20260428T12Z_MSC_RDPS_WindDir_IsbL-0050_RLatLon0.09_PT033H.grib2 2026-04-28 14:49 435K
20260428T12Z_MSC_RDPS_WindDir_IsbL-0100_RLatLon0.09_PT033H.grib2 2026-04-28 14:49 435K
20260428T12Z_MSC_RDPS_WindDir_IsbL-0150_RLatLon0.09_PT033H.grib2 2026-04-28 14:49 427K
20260428T12Z_MSC_RDPS_WindDir_IsbL-0175_RLatLon0.09_PT033H.grib2 2026-04-28 14:49 448K
20260428T12Z_MSC_RDPS_WindDir_IsbL-0200_RLatLon0.09_PT033H.grib2 2026-04-28 14:49 458K
20260428T12Z_MSC_RDPS_WindDir_IsbL-0225_RLatLon0.09_PT033H.grib2 2026-04-28 14:49 461K
20260428T12Z_MSC_RDPS_WindDir_IsbL-0250_RLatLon0.09_PT033H.grib2 2026-04-28 14:49 465K
20260428T12Z_MSC_RDPS_WindDir_IsbL-0275_RLatLon0.09_PT033H.grib2 2026-04-28 14:49 490K
20260428T12Z_MSC_RDPS_WindDir_IsbL-0300_RLatLon0.09_PT033H.grib2 2026-04-28 14:49 484K
20260428T12Z_MSC_RDPS_WindDir_IsbL-0350_RLatLon0.09_PT033H.grib2 2026-04-28 14:49 507K
20260428T12Z_MSC_RDPS_WindDir_IsbL-0400_RLatLon0.09_PT033H.grib2 2026-04-28 14:49 524K
20260428T12Z_MSC_RDPS_WindDir_IsbL-0450_RLatLon0.09_PT033H.grib2 2026-04-28 14:49 532K
20260428T12Z_MSC_RDPS_WindDir_IsbL-0500_RLatLon0.09_PT033H.grib2 2026-04-28 14:49 548K
20260428T12Z_MSC_RDPS_WindDir_IsbL-0550_RLatLon0.09_PT033H.grib2 2026-04-28 14:49 570K
20260428T12Z_MSC_RDPS_WindDir_IsbL-0600_RLatLon0.09_PT033H.grib2 2026-04-28 14:49 601K
20260428T12Z_MSC_RDPS_WindDir_IsbL-0650_RLatLon0.09_PT033H.grib2 2026-04-28 14:49 646K
20260428T12Z_MSC_RDPS_WindDir_IsbL-0700_RLatLon0.09_PT033H.grib2 2026-04-28 14:49 689K
20260428T12Z_MSC_RDPS_WindDir_IsbL-0750_RLatLon0.09_PT033H.grib2 2026-04-28 14:49 733K
20260428T12Z_MSC_RDPS_WindDir_IsbL-0800_RLatLon0.09_PT033H.grib2 2026-04-28 14:49 794K
20260428T12Z_MSC_RDPS_WindDir_IsbL-0850_RLatLon0.09_PT033H.grib2 2026-04-28 14:49 862K
20260428T12Z_MSC_RDPS_WindDir_IsbL-0875_RLatLon0.09_PT033H.grib2 2026-04-28 14:49 887K
20260428T12Z_MSC_RDPS_WindDir_IsbL-0900_RLatLon0.09_PT033H.grib2 2026-04-28 14:49 902K
20260428T12Z_MSC_RDPS_WindDir_IsbL-0925_RLatLon0.09_PT033H.grib2 2026-04-28 14:49 911K
20260428T12Z_MSC_RDPS_WindDir_IsbL-0950_RLatLon0.09_PT033H.grib2 2026-04-28 14:49 907K
20260428T12Z_MSC_RDPS_WindDir_IsbL-0970_RLatLon0.09_PT033H.grib2 2026-04-28 14:49 915K
20260428T12Z_MSC_RDPS_WindDir_IsbL-0985_RLatLon0.09_PT033H.grib2 2026-04-28 14:49 923K
20260428T12Z_MSC_RDPS_WindDir_IsbL-1000_RLatLon0.09_PT033H.grib2 2026-04-28 14:49 934K
20260428T12Z_MSC_RDPS_WindDir_IsbL-1015_RLatLon0.09_PT033H.grib2 2026-04-28 14:49 947K
20260428T12Z_MSC_RDPS_WindGust-Max_AGL-10m_RLatLon0.09_PT033H.grib2 2026-04-28 14:49 1.0M
20260428T12Z_MSC_RDPS_WindGust-Min_AGL-10m_RLatLon0.09_PT033H.grib2 2026-04-28 14:49 968K
20260428T12Z_MSC_RDPS_WindGust_AGL-10m_RLatLon0.09_PT033H.grib2 2026-04-28 14:49 1.0M
20260428T12Z_MSC_RDPS_WindSpeed_AGL-10m_RLatLon0.09_PT033H.grib2 2026-04-28 14:49 832K
20260428T12Z_MSC_RDPS_WindSpeed_AGL-120m_RLatLon0.09_PT033H.grib2 2026-04-28 14:49 530K
20260428T12Z_MSC_RDPS_WindSpeed_AGL-40m_RLatLon0.09_PT033H.grib2 2026-04-28 14:49 533K
20260428T12Z_MSC_RDPS_WindSpeed_AGL-80m_RLatLon0.09_PT033H.grib2 2026-04-28 14:49 530K
20260428T12Z_MSC_RDPS_WindSpeed_IsbL-0001_RLatLon0.09_PT033H.grib2 2026-04-28 14:49 256K
20260428T12Z_MSC_RDPS_WindSpeed_IsbL-0005_RLatLon0.09_PT033H.grib2 2026-04-28 14:49 298K
20260428T12Z_MSC_RDPS_WindSpeed_IsbL-0010_RLatLon0.09_PT033H.grib2 2026-04-28 14:49 310K
20260428T12Z_MSC_RDPS_WindSpeed_IsbL-0020_RLatLon0.09_PT033H.grib2 2026-04-28 14:49 328K
20260428T12Z_MSC_RDPS_WindSpeed_IsbL-0030_RLatLon0.09_PT033H.grib2 2026-04-28 14:49 326K
20260428T12Z_MSC_RDPS_WindSpeed_IsbL-0050_RLatLon0.09_PT033H.grib2 2026-04-28 14:49 355K
20260428T12Z_MSC_RDPS_WindSpeed_IsbL-0100_RLatLon0.09_PT033H.grib2 2026-04-28 14:49 450K
20260428T12Z_MSC_RDPS_WindSpeed_IsbL-0150_RLatLon0.09_PT033H.grib2 2026-04-28 14:49 391K
20260428T12Z_MSC_RDPS_WindSpeed_IsbL-0175_RLatLon0.09_PT033H.grib2 2026-04-28 14:49 441K
20260428T12Z_MSC_RDPS_WindSpeed_IsbL-0200_RLatLon0.09_PT033H.grib2 2026-04-28 14:49 459K
20260428T12Z_MSC_RDPS_WindSpeed_IsbL-0225_RLatLon0.09_PT033H.grib2 2026-04-28 14:49 465K
20260428T12Z_MSC_RDPS_WindSpeed_IsbL-0250_RLatLon0.09_PT033H.grib2 2026-04-28 14:49 469K
20260428T12Z_MSC_RDPS_WindSpeed_IsbL-0275_RLatLon0.09_PT033H.grib2 2026-04-28 14:49 487K
20260428T12Z_MSC_RDPS_WindSpeed_IsbL-0300_RLatLon0.09_PT033H.grib2 2026-04-28 14:49 482K
20260428T12Z_MSC_RDPS_WindSpeed_IsbL-0350_RLatLon0.09_PT033H.grib2 2026-04-28 14:49 493K
20260428T12Z_MSC_RDPS_WindSpeed_IsbL-0400_RLatLon0.09_PT033H.grib2 2026-04-28 14:49 474K
20260428T12Z_MSC_RDPS_WindSpeed_IsbL-0450_RLatLon0.09_PT033H.grib2 2026-04-28 14:49 471K
20260428T12Z_MSC_RDPS_WindSpeed_IsbL-0500_RLatLon0.09_PT033H.grib2 2026-04-28 14:49 592K
20260428T12Z_MSC_RDPS_WindSpeed_IsbL-0550_RLatLon0.09_PT033H.grib2 2026-04-28 14:49 594K
20260428T12Z_MSC_RDPS_WindSpeed_IsbL-0600_RLatLon0.09_PT033H.grib2 2026-04-28 14:49 601K
20260428T12Z_MSC_RDPS_WindSpeed_IsbL-0650_RLatLon0.09_PT033H.grib2 2026-04-28 14:49 665K
20260428T12Z_MSC_RDPS_WindSpeed_IsbL-0700_RLatLon0.09_PT033H.grib2 2026-04-28 14:49 689K
20260428T12Z_MSC_RDPS_WindSpeed_IsbL-0750_RLatLon0.09_PT033H.grib2 2026-04-28 14:49 717K
20260428T12Z_MSC_RDPS_WindSpeed_IsbL-0800_RLatLon0.09_PT033H.grib2 2026-04-28 14:49 758K
20260428T12Z_MSC_RDPS_WindSpeed_IsbL-0850_RLatLon0.09_PT033H.grib2 2026-04-28 14:49 809K
20260428T12Z_MSC_RDPS_WindSpeed_IsbL-0875_RLatLon0.09_PT033H.grib2 2026-04-28 14:49 828K
20260428T12Z_MSC_RDPS_WindSpeed_IsbL-0900_RLatLon0.09_PT033H.grib2 2026-04-28 14:49 843K
20260428T12Z_MSC_RDPS_WindSpeed_IsbL-0925_RLatLon0.09_PT033H.grib2 2026-04-28 14:49 850K
20260428T12Z_MSC_RDPS_WindSpeed_IsbL-0950_RLatLon0.09_PT033H.grib2 2026-04-28 14:49 848K
20260428T12Z_MSC_RDPS_WindSpeed_IsbL-0970_RLatLon0.09_PT033H.grib2 2026-04-28 14:49 851K
20260428T12Z_MSC_RDPS_WindSpeed_IsbL-0985_RLatLon0.09_PT033H.grib2 2026-04-28 14:49 849K
20260428T12Z_MSC_RDPS_WindSpeed_IsbL-1000_RLatLon0.09_PT033H.grib2 2026-04-28 14:49 843K
20260428T12Z_MSC_RDPS_WindSpeed_IsbL-1015_RLatLon0.09_PT033H.grib2 2026-04-28 14:49 833K
20260428T12Z_MSC_RDPS_WindU_AGL-10m_RLatLon0.09_PT033H.grib2 2026-04-28 14:49 430K
20260428T12Z_MSC_RDPS_WindU_AGL-120m_RLatLon0.09_PT033H.grib2 2026-04-28 14:49 413K
20260428T12Z_MSC_RDPS_WindU_AGL-40m_RLatLon0.09_PT033H.grib2 2026-04-28 14:49 531K
20260428T12Z_MSC_RDPS_WindU_AGL-80m_RLatLon0.09_PT033H.grib2 2026-04-28 14:49 530K
20260428T12Z_MSC_RDPS_WindU_IsbL-0001_RLatLon0.09_PT033H.grib2 2026-04-28 14:49 246K
20260428T12Z_MSC_RDPS_WindU_IsbL-0005_RLatLon0.09_PT033H.grib2 2026-04-28 14:49 290K
20260428T12Z_MSC_RDPS_WindU_IsbL-0010_RLatLon0.09_PT033H.grib2 2026-04-28 14:49 342K
20260428T12Z_MSC_RDPS_WindU_IsbL-0020_RLatLon0.09_PT033H.grib2 2026-04-28 14:49 356K
20260428T12Z_MSC_RDPS_WindU_IsbL-0030_RLatLon0.09_PT033H.grib2 2026-04-28 14:49 317K
20260428T12Z_MSC_RDPS_WindU_IsbL-0050_RLatLon0.09_PT033H.grib2 2026-04-28 14:49 381K
20260428T12Z_MSC_RDPS_WindU_IsbL-0100_RLatLon0.09_PT033H.grib2 2026-04-28 14:49 346K
20260428T12Z_MSC_RDPS_WindU_IsbL-0150_RLatLon0.09_PT033H.grib2 2026-04-28 14:49 406K
20260428T12Z_MSC_RDPS_WindU_IsbL-0175_RLatLon0.09_PT033H.grib2 2026-04-28 14:49 432K
20260428T12Z_MSC_RDPS_WindU_IsbL-0200_RLatLon0.09_PT033H.grib2 2026-04-28 14:49 450K
20260428T12Z_MSC_RDPS_WindU_IsbL-0225_RLatLon0.09_PT033H.grib2 2026-04-28 14:49 455K
20260428T12Z_MSC_RDPS_WindU_IsbL-0250_RLatLon0.09_PT033H.grib2 2026-04-28 14:49 356K
20260428T12Z_MSC_RDPS_WindU_IsbL-0275_RLatLon0.09_PT033H.grib2 2026-04-28 14:49 370K
20260428T12Z_MSC_RDPS_WindU_IsbL-0300_RLatLon0.09_PT033H.grib2 2026-04-28 14:49 365K
20260428T12Z_MSC_RDPS_WindU_IsbL-0350_RLatLon0.09_PT033H.grib2 2026-04-28 14:49 479K
20260428T12Z_MSC_RDPS_WindU_IsbL-0400_RLatLon0.09_PT033H.grib2 2026-04-28 14:49 478K
20260428T12Z_MSC_RDPS_WindU_IsbL-0450_RLatLon0.09_PT033H.grib2 2026-04-28 14:49 475K
20260428T12Z_MSC_RDPS_WindU_IsbL-0500_RLatLon0.09_PT033H.grib2 2026-04-28 14:49 460K
20260428T12Z_MSC_RDPS_WindU_IsbL-0550_RLatLon0.09_PT033H.grib2 2026-04-28 14:49 462K
20260428T12Z_MSC_RDPS_WindU_IsbL-0600_RLatLon0.09_PT033H.grib2 2026-04-28 14:49 470K
20260428T12Z_MSC_RDPS_WindU_IsbL-0650_RLatLon0.09_PT033H.grib2 2026-04-28 14:49 489K
20260428T12Z_MSC_RDPS_WindU_IsbL-0700_RLatLon0.09_PT033H.grib2 2026-04-28 14:49 511K
20260428T12Z_MSC_RDPS_WindU_IsbL-0750_RLatLon0.09_PT033H.grib2 2026-04-28 14:49 537K
20260428T12Z_MSC_RDPS_WindU_IsbL-0800_RLatLon0.09_PT033H.grib2 2026-04-28 14:49 574K
20260428T12Z_MSC_RDPS_WindU_IsbL-0850_RLatLon0.09_PT033H.grib2 2026-04-28 14:49 619K
20260428T12Z_MSC_RDPS_WindU_IsbL-0875_RLatLon0.09_PT033H.grib2 2026-04-28 14:49 634K
20260428T12Z_MSC_RDPS_WindU_IsbL-0900_RLatLon0.09_PT033H.grib2 2026-04-28 14:49 645K
20260428T12Z_MSC_RDPS_WindU_IsbL-0925_RLatLon0.09_PT033H.grib2 2026-04-28 14:49 652K
20260428T12Z_MSC_RDPS_WindU_IsbL-0950_RLatLon0.09_PT033H.grib2 2026-04-28 14:49 648K
20260428T12Z_MSC_RDPS_WindU_IsbL-0970_RLatLon0.09_PT033H.grib2 2026-04-28 14:49 647K
20260428T12Z_MSC_RDPS_WindU_IsbL-0985_RLatLon0.09_PT033H.grib2 2026-04-28 14:49 785K
20260428T12Z_MSC_RDPS_WindU_IsbL-1000_RLatLon0.09_PT033H.grib2 2026-04-28 14:49 781K
20260428T12Z_MSC_RDPS_WindU_IsbL-1015_RLatLon0.09_PT033H.grib2 2026-04-28 14:49 774K
20260428T12Z_MSC_RDPS_WindV_AGL-10m_RLatLon0.09_PT033H.grib2 2026-04-28 14:49 431K
20260428T12Z_MSC_RDPS_WindV_AGL-120m_RLatLon0.09_PT033H.grib2 2026-04-28 14:49 528K
20260428T12Z_MSC_RDPS_WindV_AGL-40m_RLatLon0.09_PT033H.grib2 2026-04-28 14:49 530K
20260428T12Z_MSC_RDPS_WindV_AGL-80m_RLatLon0.09_PT033H.grib2 2026-04-28 14:49 528K
20260428T12Z_MSC_RDPS_WindV_IsbL-0001_RLatLon0.09_PT033H.grib2 2026-04-28 14:49 247K
20260428T12Z_MSC_RDPS_WindV_IsbL-0005_RLatLon0.09_PT033H.grib2 2026-04-28 14:49 290K
20260428T12Z_MSC_RDPS_WindV_IsbL-0010_RLatLon0.09_PT033H.grib2 2026-04-28 14:49 302K
20260428T12Z_MSC_RDPS_WindV_IsbL-0020_RLatLon0.09_PT033H.grib2 2026-04-28 14:49 320K
20260428T12Z_MSC_RDPS_WindV_IsbL-0030_RLatLon0.09_PT033H.grib2 2026-04-28 14:49 358K
20260428T12Z_MSC_RDPS_WindV_IsbL-0050_RLatLon0.09_PT033H.grib2 2026-04-28 14:49 347K
20260428T12Z_MSC_RDPS_WindV_IsbL-0100_RLatLon0.09_PT033H.grib2 2026-04-28 14:49 339K
20260428T12Z_MSC_RDPS_WindV_IsbL-0150_RLatLon0.09_PT033H.grib2 2026-04-28 14:49 404K
20260428T12Z_MSC_RDPS_WindV_IsbL-0175_RLatLon0.09_PT033H.grib2 2026-04-28 14:49 431K
20260428T12Z_MSC_RDPS_WindV_IsbL-0200_RLatLon0.09_PT033H.grib2 2026-04-28 14:49 347K
20260428T12Z_MSC_RDPS_WindV_IsbL-0225_RLatLon0.09_PT033H.grib2 2026-04-28 14:49 351K
20260428T12Z_MSC_RDPS_WindV_IsbL-0250_RLatLon0.09_PT033H.grib2 2026-04-28 14:49 378K
20260428T12Z_MSC_RDPS_WindV_IsbL-0275_RLatLon0.09_PT033H.grib2 2026-04-28 14:49 392K
20260428T12Z_MSC_RDPS_WindV_IsbL-0300_RLatLon0.09_PT033H.grib2 2026-04-28 14:49 387K
20260428T12Z_MSC_RDPS_WindV_IsbL-0350_RLatLon0.09_PT033H.grib2 2026-04-28 14:49 372K
20260428T12Z_MSC_RDPS_WindV_IsbL-0400_RLatLon0.09_PT033H.grib2 2026-04-28 14:49 372K
20260428T12Z_MSC_RDPS_WindV_IsbL-0450_RLatLon0.09_PT033H.grib2 2026-04-28 14:49 474K
20260428T12Z_MSC_RDPS_WindV_IsbL-0500_RLatLon0.09_PT033H.grib2 2026-04-28 14:49 476K
20260428T12Z_MSC_RDPS_WindV_IsbL-0550_RLatLon0.09_PT033H.grib2 2026-04-28 14:49 477K
20260428T12Z_MSC_RDPS_WindV_IsbL-0600_RLatLon0.09_PT033H.grib2 2026-04-28 14:49 486K
20260428T12Z_MSC_RDPS_WindV_IsbL-0650_RLatLon0.09_PT033H.grib2 2026-04-28 14:49 503K
20260428T12Z_MSC_RDPS_WindV_IsbL-0700_RLatLon0.09_PT033H.grib2 2026-04-28 14:49 507K
20260428T12Z_MSC_RDPS_WindV_IsbL-0750_RLatLon0.09_PT033H.grib2 2026-04-28 14:49 532K
20260428T12Z_MSC_RDPS_WindV_IsbL-0800_RLatLon0.09_PT033H.grib2 2026-04-28 14:49 568K
20260428T12Z_MSC_RDPS_WindV_IsbL-0850_RLatLon0.09_PT033H.grib2 2026-04-28 14:49 614K
20260428T12Z_MSC_RDPS_WindV_IsbL-0875_RLatLon0.09_PT033H.grib2 2026-04-28 14:49 630K
20260428T12Z_MSC_RDPS_WindV_IsbL-0900_RLatLon0.09_PT033H.grib2 2026-04-28 14:49 643K
20260428T12Z_MSC_RDPS_WindV_IsbL-0925_RLatLon0.09_PT033H.grib2 2026-04-28 14:49 790K
20260428T12Z_MSC_RDPS_WindV_IsbL-0950_RLatLon0.09_PT033H.grib2 2026-04-28 14:49 787K
20260428T12Z_MSC_RDPS_WindV_IsbL-0970_RLatLon0.09_PT033H.grib2 2026-04-28 14:49 789K
20260428T12Z_MSC_RDPS_WindV_IsbL-0985_RLatLon0.09_PT033H.grib2 2026-04-28 14:49 787K
20260428T12Z_MSC_RDPS_WindV_IsbL-1000_RLatLon0.09_PT033H.grib2 2026-04-28 14:49 781K
20260428T12Z_MSC_RDPS_WindV_IsbL-1015_RLatLon0.09_PT033H.grib2 2026-04-28 14:49 821K